User: anonymous   Login
Location: Ostrava
(49.8330°N, 18.2830°E)
Time: 13:55:44
(UTC+01:00)
Language:

Cosmos 2219 Rocket - Orbit

View from above orbital plane
View from above orbital plane
View from above satellite
View from above satellite

Ground track
Ground track

The orbit data is extracted from the following two-line orbital elements,

1 22220U 92076B   17018.18564102  .00000153  00000-0  10116-3 0  9997
2 22220  71.0000  14.9925 0011638 150.9138 283.2297 14.16408057249536
Epoch (UTC): 18 January 2017 04:27:19
Eccentricity: 0.0011638
inclination: 71.0000°
perigee height: 829 km
apogee height: 846 km
right ascension of ascending node: 14.9925°
argument of perigee: 150.9138°
revolutions per day: 14.16408057
mean anomaly at epoch: 283.2297°
orbit number at epoch: 24953

The dashed part of the orbit path shows where the satellite is in the earth's shadow,  

DLR